Weather in Izmaylovka

Russia / Tambov Oblast     52°19′07″N   41°23′39″E
temp.,
°C
wind,
m/s
gust,
m/s
humid.,
%
clouds,
%
prec.,
mm/h
press.,
hPa
HPBL,
m
3 march, wed
wed300:000nw51094100 0.5 1008490
03:00−3nw4109592 0.5 1009248
06:00−2nw5109488 0.1 1010626
09:00−2nnw7129494 0.4 1013800
12:00−3nnw7108642 0.1 1015776
15:00−3nw6108840 0.1 1016743
18:00−6wnw479096 0.0 1016133
21:00−6w499373 0.0 1017187
4 march, thu
thu400:00−2wsw6129392 0.1 1015571
03:00−3w6129195 0.1 1013573
06:00−2wsw71391100 0.1 1011526
09:00−1wsw81591100 0.2 1010585
12:00+1wsw8168989 0.0 1008685
15:00+1wsw8168380 0.0 1007807
18:000sw6158092 0.0 1005444
21:00+1wsw6158695 0.0 1004568
5 march, fri
fri500:00+1sw61395100 0.0 1001487
03:00+2wsw71498100 0.3 1000533
06:00+1w61397100 0.4 1001613
09:00−1wnw6994100 0.8 1004536
12:00−2nnw468991 0.0 1007569
15:00−2nw359092 0.0 1010489
18:00−4nnw2391100 0.0 101147
21:00−5nne1290100 0.0 101224
6 march, sat
sat600:00−5nne2393100 0.0 101282
03:00−6nne2394100 0.0 101272
06:00−8nnw359296 0.0 101391
09:00−7nnw489398 0.0 1014298
12:00−6nnw478323 0.0 1015517
15:00−5nw478311 0.0 1016622
18:00−8wnw23900 0.0 101622
21:00−10nw339415 0.0 101853
7 march, sun
sun700:00−11nw239172 0.0 101858
03:00−12wsw238836 0.0 101823
06:00−11sw48940 0.0 1017153
09:00−7sw7138821 0.0 1015661
12:00−4sw91575100 0.0 1012943
15:00−3sw91770100 0.0 10091161
18:00−3sw81772100 0.0 10061047
21:00−2wsw81779100 0.0 1005926